Home   Weather   India   Mahendragarh   Past weeks
Flag for India

Past Weather in Mahendragarh, Haryana, India — Yesterday and Last 2 Weeks

Currently: 59 °F. Haze. (Weather station: New Delhi Palam Airport, India). See more current weather

Past Weather in Mahendragarh — Graph

°F

Mahendragarh Temperature Yesterday

Maximum temperature yesterday: 73 °F (at 2:00 pm)
Minimum temperature yesterday: 54 °F (at 6:30 am)
Average temperature yesterday: 62 °F

High & Low Weather Summary for the Past Weeks

 TemperatureHumidityPressure
High79 °F (Nov 22, 3:00 pm)94% (Dec 4, 4:00 am)30.12 "Hg (Dec 4, 4:00 am)
Low52 °F (Dec 6, 7:00 am)21% (Nov 25, 3:30 pm)29.83 "Hg (Nov 27, 4:30 pm)
Average65 °F59%29.98 "Hg
* Reported Nov 21 9:30 pm — Dec 6 9:30 pm, Mahendragarh. Weather by CustomWeather, © 2022

Note: Actual official high and low records may vary slightly from our data, if they occured in-between our weather recording intervals... More about our weather records

Mahendragarh Weather History for the Previous 24 Hours

Scroll right to see more
 ConditionsComfort  
Time TempWeatherWind HumidityBarometerVisibility
9:30 pm
Tue, Dec 6
59 °FHaze.5 mph68%30.01 "Hg1 mi
9:00 pm61 °FHaze.5 mph63%30.01 "Hg1 mi
8:30 pm61 °FHaze.5 mph68%30.01 "Hg1 mi
8:00 pm61 °FHaze.5 mph68%30.01 "Hg1 mi
7:30 pm61 °FHaze.5 mph68%30.01 "Hg1 mi
7:00 pm63 °FHaze.5 mph64%30.01 "Hg1 mi
6:30 pm64 °FHaze.6 mph60%29.98 "Hg1 mi
5:30 pm66 °FHaze.6 mph56%29.98 "Hg1 mi
5:00 pm68 °FClear.6 mph49%29.98 "Hg1 mi
4:30 pm72 °FClear.8 mph44%29.98 "Hg1 mi
4:00 pm73 °FClear.8 mph38%29.98 "Hg1 mi
3:30 pm73 °FClear.8 mph41%29.98 "Hg1 mi
3:00 pm73 °FClear.8 mph41%29.98 "Hg1 mi
2:30 pm72 °FClear.10 mph44%29.98 "Hg1 mi
2:00 pm72 °FClear.9 mph47%29.98 "Hg1 mi
1:30 pm72 °FClear.9 mph53%30.01 "Hg1 mi
1:00 pm72 °FClear.9 mph53%30.04 "Hg1 mi
12:30 pm70 °FClear.9 mph57%30.04 "Hg1 mi
12:00 pm66 °FClear.7 mph60%30.07 "Hg1 mi
11:30 am66 °FClear.6 mph60%30.07 "Hg1 mi
11:00 am64 °FClear.6 mph64%30.09 "Hg1 mi
10:30 am63 °FClear.6 mph68%30.09 "Hg1 mi
10:00 am61 °FClear.6 mph72%30.09 "Hg1 mi
9:30 am57 °FFog.6 mph82%30.09 "Hg1 mi
8:30 am55 °FFog.3 mph82%30.07 "Hg1 mi
8:00 am54 °FFog.3 mph88%30.04 "Hg1 mi
7:30 am52 °FFog.2 mph88%30.04 "Hg1 mi
7:00 am52 °FFog.3 mph88%30.04 "Hg1 mi
6:30 am54 °FFog.3 mph82%30.01 "Hg1 mi
5:00 am55 °FFog.3 mph82%30.01 "Hg1 mi
4:30 am55 °FFog.2 mph82%30.01 "Hg1 mi
4:00 am55 °FFog.2 mph82%30.01 "Hg1 mi
3:30 am55 °FFog.3 mph82%30.01 "Hg1 mi
3:00 am55 °FFog.No wind82%30.01 "Hg1 mi
2:30 am55 °FFog.No wind82%30.01 "Hg1 mi
2:00 am57 °FFog.No wind77%30.01 "Hg1 mi
1:30 am57 °FFog.No wind77%30.01 "Hg1 mi
1:00 am57 °FFog.No wind77%30.01 "Hg1 mi
12:30 am57 °FFog.No wind77%30.01 "Hg1 mi
11:30 pm
Mon, Dec 5
59 °FFog.No wind77%30.04 "Hg1 mi
10:30 pm59 °FClear.No wind72%30.04 "Hg1 mi
10:00 pm61 °FClear.No wind72%30.07 "Hg1 mi
Weather by CustomWeather, © 2022

See weather overview